Monterey, CA

7:58 AM PST on November 22, 2017 (GMT -0800)
Monterey Peninsula

Weather History for KMRY - April, 2013

Change the Weather History Date:

Thursday, April 25, 2013

  Actual Average Record
Temperature  
Mean Temperature 57 °F 55 °F  
Max Temperature 63 °F 62 °F 80 °F (2004)
Min Temperature 50 °F 48 °F 44 °F (2000)
Degree Days  
Heating Degree Days 8    
Month to date heating degree days 245  
Since 1 July heating degree days 2895  
Cooling Degree Days 0    
Month to date cooling degree days 0  
Year to date cooling degree days 0  
Growing Degree Days 7 (Base 50)    
Moisture  
Dew Point 49 °F    
Average Humidity 73    
Maximum Humidity 89    
Minimum Humidity 56    
Precipitation  
Precipitation 0.00 in - 0.46 in (2015)
Month to date precipitation 0.30  
Year to date precipitation 3.09  
Since 1 July precipitation 11.33  
Sea Level Pressure  
Sea Level Pressure 30.09 in    
Wind  
Wind Speed 5 mph (WNW)    
Max Wind Speed 16 mph    
Max Gust Speed 20 mph    
Visibility 10 miles    
Events      
T = Trace of Precipitation, MM = Missing Value Source: NWS Daily Summary

Daily Weather History Graph

Daily Weather History Graph

Search for Another Location

Airport or City:

Trip Planner

Search our weather history database for the weather conditions in past years. The results will help you decide how hot, cold, wet, or windy it might be!

Date:

Astronomy

Apr. 25, 2013 Rise Set
Actual Time 6:20 AM PDT 7:50 PM PDT
Civil Twilight 5:53 AM PDT 8:18 PM PDT
Nautical Twilight 5:20 AM PDT 8:50 PM PDT
Astronomical Twilight 4:45 AM PDT 9:25 PM PDT
Moon 8:09 PM PDT (4/25) 6:07 AM PDT (4/25)
Length of Visible Light 14h 25m
Length of Day
13h 30m
Full, 100% of the Moon is Illuminated
Apr 25
Full
Apr 25
Full
May 2
Last Quarter
May 9
New
May 17
First Quarter

Hourly Weather History & Observations

Time (PDT) Temp. Dew Point Humidity Pressure Visibility Wind Dir Wind Speed Gust Speed Precip Events Conditions
12:54 AM 54.0 °F 50.0 °F 86% 30.04 in 10.0 mi Calm Calm - N/A   Overcast
1:30 AM 53.6 °F 50.0 °F 88% 30.00 in 10.0 mi South 3.5 mph - N/A   Overcast
1:54 AM 54.0 °F 50.0 °F 86% 30.04 in 10.0 mi Calm Calm - N/A   Overcast
2:54 AM 55.0 °F 50.0 °F 83% 30.02 in 10.0 mi East 3.5 mph - N/A   Overcast
3:54 AM 54.0 °F 50.0 °F 86% 30.03 in 10.0 mi North 3.5 mph - N/A   Overcast
4:31 AM 53.6 °F 50.0 °F 88% 30.00 in 10.0 mi Calm Calm - N/A   Overcast
4:47 AM 53.6 °F 50.0 °F 88% 30.00 in 10.0 mi Calm Calm - N/A   Overcast
4:54 AM 54.0 °F 50.0 °F 86% 30.04 in 10.0 mi Calm Calm - N/A   Overcast
5:06 AM 53.6 °F 50.0 °F 88% 30.00 in 10.0 mi Calm Calm - N/A   Overcast
5:18 AM 53.6 °F 50.0 °F 88% 30.00 in 10.0 mi Calm Calm - N/A   Overcast
5:52 AM 53.6 °F 50.0 °F 88% 30.01 in 10.0 mi Calm Calm - N/A   Overcast
5:54 AM 54.0 °F 50.0 °F 86% 30.05 in 10.0 mi Calm Calm - N/A   Overcast
6:01 AM 53.6 °F 50.0 °F 88% 30.01 in 10.0 mi Calm Calm - N/A   Overcast
6:31 AM 53.6 °F 50.0 °F 88% 30.02 in 10.0 mi Calm Calm - N/A   Overcast
6:54 AM 54.0 °F 50.0 °F 86% 30.06 in 10.0 mi Calm Calm - N/A   Overcast
7:54 AM 55.0 °F 50.0 °F 83% 30.09 in 10.0 mi Calm Calm - N/A   Overcast
8:54 AM 57.0 °F 50.0 °F 77% 30.10 in 10.0 mi Calm Calm - N/A   Overcast
9:54 AM 57.0 °F 48.9 °F 74% 30.13 in 10.0 mi NW 4.6 mph - N/A   Overcast
10:54 AM 59.0 °F 48.0 °F 67% 30.13 in 10.0 mi West 5.8 mph - N/A   Overcast
11:08 AM 60.8 °F 48.2 °F 63% 30.09 in 10.0 mi WNW 4.6 mph - N/A   Scattered Clouds
11:54 AM 60.1 °F 46.9 °F 62% 30.14 in 10.0 mi NW 8.1 mph - N/A   Scattered Clouds
12:54 PM 60.1 °F 46.9 °F 62% 30.13 in 10.0 mi NW 9.2 mph - N/A   Clear
1:54 PM 62.1 °F 46.9 °F 58% 30.14 in 10.0 mi NW 9.2 mph - N/A   Clear
2:54 PM 61.0 °F 48.0 °F 62% 30.14 in 10.0 mi NW 11.5 mph - N/A   Clear
3:54 PM 62.1 °F 46.9 °F 58% 30.13 in 10.0 mi WNW 12.7 mph - N/A   Clear
4:54 PM 61.0 °F 46.9 °F 60% 30.14 in 10.0 mi West 12.7 mph - N/A   Clear
5:54 PM 60.1 °F 46.9 °F 62% 30.15 in 10.0 mi West 8.1 mph - N/A   Clear
6:54 PM 57.9 °F 46.9 °F 67% 30.15 in 10.0 mi WNW 8.1 mph - N/A   Clear
7:54 PM 57.0 °F 46.9 °F 69% 30.16 in 10.0 mi West 4.6 mph - N/A   Clear
8:54 PM 55.0 °F 48.0 °F 77% 30.18 in 10.0 mi West 3.5 mph - N/A   Clear
9:54 PM 52.0 °F 45.0 °F 77% 30.19 in 10.0 mi Calm Calm - N/A   Clear
10:54 PM 52.0 °F 46.0 °F 80% 30.19 in 10.0 mi Calm Calm - N/A   Clear
11:54 PM 52.0 °F 46.9 °F 83% 30.19 in 10.0 mi South 3.5 mph - N/A   Clear